Showing 72
Show Past 72 Hours | Show Past 24 Hours xlsx
Date RH Dew Seasonal Current Max Air Min Air Wind Wind Wind Gust Rain
Time % Point Rain Air Temp Since Since Speed Dir Gust Dir Total
Deg F Inches Deg F Midnight Midnight MPH MPH Inches
------------------------------------------------------------------------------------------------------------------------
05/08/2026 00:00 100 54.5 24.67 54.5 54.5 54.5 0 291 0 291 0.00
05/07/2026 23:45 100 54.5 24.67 54.5 70.1 53.1 0 295 11 238 0.00
05/07/2026 23:30 100 54.6 24.67 54.6 70.1 53.1 0 238 11 238 0.00
05/07/2026 23:15 100 54.7 24.67 54.7 70.1 53.1 0 301 11 238 0.00
05/07/2026 23:00 100 54.7 24.67 54.7 70.1 53.1 0 277 11 238 0.00
05/07/2026 22:45 100 54.9 24.67 54.9 70.1 53.1 0 251 11 238 0.00
05/07/2026 22:30 100 55.1 24.67 55.1 70.1 53.1 0 29 11 238 0.00
05/07/2026 22:15 100 55.2 24.67 55.2 70.1 53.1 0 346 11 238 0.00
05/07/2026 22:00 100 55.3 24.67 55.3 70.1 53.1 0 246 11 238 0.00
05/07/2026 21:45 100 55.4 24.67 55.4 70.1 53.1 0 306 11 238 0.00
05/07/2026 21:30 100 55.5 24.67 55.5 70.1 53.1 0 241 11 238 0.00
05/07/2026 21:15 100 55.5 24.67 55.5 70.1 53.1 0 277 11 238 0.00
05/07/2026 21:00 100 55.6 24.67 55.6 70.1 53.1 0 285 11 238 0.00
05/07/2026 20:45 100 55.8 24.67 55.8 70.1 53.1 0 231 11 238 0.00
05/07/2026 20:30 100 55.9 24.67 55.9 70.1 53.1 0 294 11 238 0.00
05/07/2026 20:15 100 56.0 24.67 56.0 70.1 53.1 3 190 11 238 0.00
05/07/2026 20:00 100 56.2 24.67 56.2 70.1 53.1 2 289 11 238 0.00
05/07/2026 19:45 100 56.5 24.67 56.6 70.1 53.1 0 307 11 238 0.00
05/07/2026 19:30 98 56.5 24.67 57.1 70.1 53.1 4 303 11 238 0.00
05/07/2026 19:15 95 56.6 24.67 58.1 70.1 53.1 4 291 11 238 0.00
05/07/2026 19:00 92 57.0 24.67 59.3 70.1 53.1 6 306 11 238 0.00
05/07/2026 18:45 91 57.1 24.67 59.9 70.1 53.1 6 256 11 238 0.00
05/07/2026 18:30 89 57.1 24.67 60.3 70.1 53.1 9 248 11 238 0.00
05/07/2026 18:15 86 57.2 24.67 61.3 70.1 53.1 8 224 11 238 0.00
05/07/2026 18:00 84 57.6 24.67 62.5 70.1 53.1 9 285 11 238 0.00
05/07/2026 17:45 84 57.7 24.67 62.8 70.1 53.1 8 235 11 238 0.00
05/07/2026 17:30 82 58.1 24.67 63.5 70.1 53.1 7 275 11 238 0.00
05/07/2026 17:15 83 58.7 24.67 63.9 70.1 53.1 6 205 11 238 0.00
05/07/2026 17:00 85 59.0 24.67 63.5 70.1 53.1 7 245 11 238 0.00
05/07/2026 16:45 87 58.8 24.67 62.8 70.1 53.1 9 246 11 238 0.00
05/07/2026 16:30 86 59.3 24.67 63.4 70.1 53.1 9 293 11 238 0.00
05/07/2026 16:15 84 59.6 24.67 64.4 70.1 53.1 9 293 11 238 0.00
05/07/2026 16:00 84 59.7 24.67 64.7 70.1 53.1 9 264 11 238 0.00
05/07/2026 15:45 84 59.8 24.67 64.9 70.1 53.1 9 259 11 238 0.00
05/07/2026 15:30 82 60.2 24.67 65.6 70.1 53.1 10 306 11 238 0.00
05/07/2026 15:15 81 60.0 24.67 66.1 70.1 53.1 11 291 11 238 0.00
05/07/2026 15:00 79 60.3 24.67 67.1 70.1 53.1 10 261 11 238 0.00
05/07/2026 14:45 80 60.8 24.67 67.2 70.1 53.1 8 288 11 238 0.00
05/07/2026 14:30 81 60.2 24.67 66.1 70.1 53.1 11 238 11 238 0.00
05/07/2026 14:15 81 60.4 24.67 66.6 70.1 53.1 8 244 10 248 0.00
05/07/2026 14:00 81 60.7 24.67 66.7 70.1 53.1 9 310 10 248 0.00
05/07/2026 13:45 82 60.5 24.67 66.2 70.1 53.1 9 265 10 248 0.00
05/07/2026 13:30 80 60.5 24.67 66.8 70.1 53.1 8 284 10 248 0.00
05/07/2026 13:15 80 60.3 24.67 66.6 70.1 53.1 10 248 10 248 0.00
05/07/2026 13:00 79 60.6 24.67 67.2 70.1 53.1 9 296 9 296 0.00
05/07/2026 12:45 80 60.8 24.67 67.3 70.1 53.1 8 206 9 192 0.00
05/07/2026 12:30 80 60.9 24.67 67.4 70.1 53.1 8 264 9 192 0.00
05/07/2026 12:15 80 61.2 24.67 67.7 70.1 53.1 8 217 9 192 0.00
05/07/2026 12:00 79 61.6 24.67 68.5 70.1 53.1 7 263 9 192 0.00
05/07/2026 11:45 77 61.4 24.67 68.9 70.1 53.1 8 228 9 192 0.00
05/07/2026 11:30 76 62.0 24.67 70.1 70.1 53.1 8 249 9 192 0.00
05/07/2026 11:15 76 62.2 24.67 70.1 70.1 53.1 8 116 9 192 0.00
05/07/2026 11:00 77 62.5 24.67 69.8 69.8 53.1 6 243 9 192 0.00
05/07/2026 10:45 81 61.9 24.67 68.0 68.0 53.1 6 245 9 192 0.00
05/07/2026 10:30 83 61.7 24.67 66.9 66.9 53.1 7 237 9 192 0.00
05/07/2026 10:15 89 62.0 24.67 65.3 65.3 53.1 7 277 9 192 0.00
05/07/2026 10:00 96 61.4 24.67 62.7 62.7 53.1 7 244 9 192 0.00
05/07/2026 09:45 100 60.7 24.67 60.8 60.8 53.1 9 192 9 192 0.00
05/07/2026 09:30 100 59.8 24.67 59.8 59.8 53.1 6 266 7 205 0.00
05/07/2026 09:15 100 57.9 24.67 57.9 57.9 53.1 7 233 7 205 0.00
05/07/2026 09:00 100 57.0 24.67 57.0 57.0 53.1 7 205 7 205 0.00
05/07/2026 08:45 100 56.5 24.67 56.5 56.5 53.1 6 227 6 227 0.00
05/07/2026 08:30 100 55.9 24.67 55.9 55.9 53.1 4 233 6 317 0.00
05/07/2026 08:15 100 54.9 24.67 54.9 55.8 53.1 6 317 6 317 0.00
05/07/2026 08:00 100 54.6 24.67 54.6 55.8 53.1 2 235 4 249 0.00
05/07/2026 07:45 100 53.9 24.67 53.9 55.8 53.1 4 249 4 249 0.00
05/07/2026 07:30 100 53.9 24.67 53.9 55.8 53.1 0 199 1 281 0.00
05/07/2026 07:15 100 53.6 24.67 53.6 55.8 53.1 0 137 1 281 0.00
05/07/2026 07:00 100 53.2 24.67 53.2 55.8 53.1 0 287 1 281 0.00
05/07/2026 06:45 100 53.1 24.67 53.1 55.8 53.1 0 233 1 281 0.00
05/07/2026 06:30 100 53.2 24.67 53.2 55.8 53.1 0 220 1 281 0.00
05/07/2026 06:15 100 53.5 24.67 53.5 55.8 53.1 1 281 1 281 0.00
05/07/2026 06:00 100 53.5 24.67 53.5 55.8 53.1 1 159 1 159 0.00
05/07/2026 05:45 100 53.5 24.67 53.5 55.8 53.1 1 266 1 266 0.00
05/07/2026 05:30 100 53.6 24.67 53.6 55.8 53.1 0 97 0 314 0.00
05/07/2026 05:15 100 53.8 24.67 53.8 55.8 53.1 0 227 0 314 0.00
05/07/2026 05:00 100 53.9 24.67 53.9 55.8 53.1 0 113 0 314 0.00
05/07/2026 04:45 100 54.0 24.67 54.0 55.8 53.1 0 144 0 314 0.00
05/07/2026 04:30 100 55.5 24.67 55.5 55.8 53.1 0 236 0 314 0.00
05/07/2026 04:15 100 55.0 24.67 55.0 55.8 53.1 0 24 0 314 0.00
05/07/2026 04:00 100 53.1 24.67 53.1 55.8 53.1 0 191 0 314 0.00
05/07/2026 03:45 100 53.5 24.67 53.5 55.8 53.5 0 126 0 314 0.00
05/07/2026 03:30 100 53.8 24.67 53.8 55.8 53.8 0 316 0 314 0.00
05/07/2026 03:15 100 53.8 24.67 53.8 55.8 53.8 0 196 0 314 0.00
05/07/2026 03:00 100 54.0 24.67 54.0 55.8 54.0 0 131 0 314 0.00
05/07/2026 02:45 100 54.3 24.67 54.3 55.8 54.3 0 202 0 314 0.00
05/07/2026 02:30 100 54.5 24.67 54.5 55.8 54.5 0 277 0 314 0.00
05/07/2026 02:15 100 54.7 24.67 54.7 55.8 54.7 0 360 0 314 0.00
05/07/2026 02:00 100 54.9 24.67 54.9 55.8 54.9 0 196 0 314 0.00
05/07/2026 01:45 100 55.1 24.67 55.1 55.8 55.1 0 205 0 314 0.00
05/07/2026 01:30 100 55.2 24.67 55.2 55.8 55.2 0 233 0 314 0.00
05/07/2026 01:15 100 55.3 24.67 55.3 55.8 55.3 0 265 0 314 0.00
05/07/2026 01:00 100 55.3 24.67 55.3 55.8 55.3 0 274 0 314 0.00
05/07/2026 00:45 100 55.5 24.67 55.5 55.8 55.5 0 331 0 314 0.00
05/07/2026 00:30 100 55.6 24.67 55.6 55.8 55.6 0 314 0 314 0.00
05/07/2026 00:15 100 55.8 24.67 55.8 55.8 55.8 0 311 0 311 0.00
05/07/2026 00:00 100 55.8 24.67 55.8 55.8 55.8 0 312 0 312 0.00
05/06/2026 23:45 100 55.8 24.67 55.8 73.6 49.9 0 93 17 19 0.00
05/06/2026 23:30 100 56.0 24.67 56.0 73.6 49.9 0 268 17 19 0.00
05/06/2026 23:15 100 56.1 24.67 56.1 73.6 49.9 0 256 17 19 0.00
05/06/2026 23:00 100 56.2 24.67 56.2 73.6 49.9 0 288 17 19 0.00
05/06/2026 22:45 100 56.5 24.67 56.5 73.6 49.9 0 285 17 19 0.00
05/06/2026 22:30 100 56.5 24.67 56.5 73.6 49.9 0 263 17 19 0.00
05/06/2026 22:15 100 56.6 24.67 56.6 73.6 49.9 0 281 17 19 0.00
05/06/2026 22:00 100 56.8 24.67 56.8 73.6 49.9 0 302 17 19 0.00
05/06/2026 21:45 100 56.8 24.67 56.8 73.6 49.9 0 284 17 19 0.00
05/06/2026 21:30 100 56.9 24.67 56.9 73.6 49.9 1 340 17 19 0.00
05/06/2026 21:15 100 56.6 24.67 56.6 73.6 49.9 0 303 17 19 0.00
05/06/2026 21:00 100 56.7 24.67 56.7 73.6 49.9 0 232 17 19 0.00
05/06/2026 20:45 100 56.9 24.67 56.9 73.6 49.9 0 275 17 19 0.00
05/06/2026 20:30 100 57.1 24.67 57.1 73.6 49.9 0 237 17 19 0.00
05/06/2026 20:15 99 57.2 24.67 57.4 73.6 49.9 1 213 17 19 0.00
05/06/2026 20:00 97 57.0 24.67 57.9 73.6 49.9 2 280 17 19 0.00
05/06/2026 19:45 95 56.9 24.67 58.4 73.6 49.9 1 230 17 19 0.00
05/06/2026 19:30 91 56.7 24.67 59.3 73.6 49.9 4 247 17 19 0.00
05/06/2026 19:15 86 56.4 24.67 60.6 73.6 49.9 6 274 17 19 0.00
05/06/2026 19:00 82 56.3 24.67 61.9 73.6 49.9 4 277 17 19 0.00
05/06/2026 18:45 78 56.2 24.67 63.2 73.6 49.9 4 276 17 19 0.00
05/06/2026 18:30 75 56.0 24.67 64.2 73.6 49.9 3 286 17 19 0.00
05/06/2026 18:15 73 56.1 24.67 64.9 73.6 49.9 2 237 17 19 0.00
05/06/2026 18:00 72 56.3 24.67 65.4 73.6 49.9 2 347 17 19 0.00
05/06/2026 17:45 71 56.7 24.67 66.3 73.6 49.9 3 214 17 19 0.00
05/06/2026 17:30 69 56.6 24.67 67.3 73.6 49.9 4 252 17 19 0.00
05/06/2026 17:15 69 56.3 24.67 66.9 73.6 49.9 4 294 17 19 0.00
05/06/2026 17:00 69 56.5 24.67 67.1 73.6 49.9 5 304 17 19 0.00
05/06/2026 16:45 69 56.8 24.67 67.4 73.6 49.9 8 260 17 19 0.00
05/06/2026 16:30 67 57.3 24.67 68.6 73.6 49.9 7 269 17 19 0.00
05/06/2026 16:15 67 57.5 24.67 69.0 73.6 49.9 6 225 17 19 0.00
05/06/2026 16:00 67 57.6 24.67 69.2 73.6 49.9 6 253 17 19 0.00
05/06/2026 15:45 67 57.7 24.67 69.3 73.6 49.9 6 257 17 19 0.00
05/06/2026 15:30 67 57.6 24.67 69.0 73.6 49.9 5 254 17 19 0.00
05/06/2026 15:15 68 57.8 24.67 68.9 73.6 49.9 4 169 17 19 0.00
05/06/2026 15:00 67 58.0 24.67 69.2 73.6 49.9 7 221 17 19 0.00
05/06/2026 14:45 66 57.8 24.67 69.6 73.6 49.9 6 234 17 19 0.00
05/06/2026 14:30 67 57.9 24.67 69.5 73.6 49.9 5 254 17 19 0.00
05/06/2026 14:15 67 57.9 24.67 69.4 73.6 49.9 7 201 17 19 0.00
05/06/2026 14:00 67 57.7 24.67 69.3 73.6 49.9 8 165 17 19 0.00
05/06/2026 13:45 67 58.0 24.67 69.4 73.6 49.9 6 311 17 19 0.00
05/06/2026 13:30 69 57.9 24.67 68.6 73.6 49.9 5 223 17 19 0.00
05/06/2026 13:15 68 57.3 24.67 68.2 73.6 49.9 8 235 17 19 0.00
05/06/2026 13:00 68 57.6 24.67 68.5 73.6 49.9 9 253 17 19 0.00
05/06/2026 12:45 67 57.8 24.67 69.0 73.6 49.9 9 246 17 19 0.00
05/06/2026 12:30 67 57.9 24.67 69.4 73.6 49.9 8 291 17 19 0.00
05/06/2026 12:15 67 58.4 24.67 69.9 73.6 49.9 7 249 17 19 0.00
05/06/2026 12:00 66 58.1 24.67 70.0 73.6 49.9 8 300 17 19 0.00
05/06/2026 11:45 64 57.5 24.67 70.4 73.6 49.9 12 281 17 19 0.00
05/06/2026 11:30 57 57.3 24.67 73.6 73.6 49.9 4 290 17 19 0.00
05/06/2026 11:15 57 57.0 24.67 73.0 73.0 49.9 5 34 17 19 0.00
05/06/2026 11:00 59 57.1 24.67 72.1 72.1 49.9 7 20 17 19 0.00
05/06/2026 10:45 62 57.3 24.67 71.1 71.1 49.9 5 355 17 19 0.00
05/06/2026 10:30 65 57.7 24.67 70.0 70.0 49.9 2 24 17 19 0.00
05/06/2026 10:15 68 57.3 24.67 68.4 68.4 49.9 8 16 17 19 0.00
05/06/2026 10:00 71 57.4 24.67 67.2 67.2 49.9 6 356 17 19 0.00
05/06/2026 09:45 73 56.6 24.67 65.6 65.6 49.9 13 7 17 19 0.00
05/06/2026 09:30 74 56.2 24.67 64.7 64.7 49.9 13 21 17 19 0.00
05/06/2026 09:15 75 56.1 24.67 64.1 64.1 49.9 13 26 17 19 0.00
05/06/2026 09:00 77 55.7 24.67 63.1 63.1 49.9 13 3 17 19 0.00
05/06/2026 08:45 78 55.1 24.67 61.9 61.9 49.9 17 19 17 19 0.00
05/06/2026 08:30 79 55.0 24.67 61.7 61.7 49.9 15 23 15 23 0.00
05/06/2026 08:15 80 54.9 24.67 61.0 61.0 49.9 12 21 15 38 0.00
05/06/2026 08:00 83 54.6 24.67 59.7 59.7 49.9 14 33 15 38 0.00
05/06/2026 07:45 85 54.1 24.67 58.7 58.7 49.9 15 38 15 38 0.00
05/06/2026 07:30 88 54.4 24.67 57.9 57.9 49.9 14 24 14 24 0.00
05/06/2026 07:15 93 54.7 24.67 56.7 56.7 49.9 12 19 13 22 0.00
05/06/2026 07:00 99 54.9 24.67 55.2 55.2 49.9 13 22 13 22 0.00
05/06/2026 06:45 100 53.9 24.67 53.9 55.0 49.9 8 34 8 34 0.00
05/06/2026 06:30 100 51.3 24.67 51.3 55.0 49.9 1 32 1 32 0.00
05/06/2026 06:15 100 51.5 24.67 51.5 55.0 49.9 0 173 0 340 0.00
05/06/2026 06:00 100 52.1 24.67 52.1 55.0 49.9 0 253 0 340 0.00
05/06/2026 05:45 100 50.4 24.67 50.4 55.0 49.9 0 35 0 340 0.00
05/06/2026 05:30 100 50.4 24.67 50.4 55.0 49.9 0 225 0 340 0.00
05/06/2026 05:15 100 50.4 24.67 50.4 55.0 49.9 0 150 0 340 0.00
05/06/2026 05:00 100 50.3 24.67 50.3 55.0 49.9 0 197 0 340 0.00
05/06/2026 04:45 100 50.1 24.67 50.1 55.0 49.9 0 3 0 340 0.00
05/06/2026 04:30 100 50.4 24.67 50.4 55.0 49.9 0 110 0 340 0.00
05/06/2026 04:15 100 50.6 24.67 50.6 55.0 49.9 0 210 0 340 0.00
05/06/2026 04:00 100 50.2 24.67 50.2 55.0 49.9 0 107 0 340 0.00
05/06/2026 03:45 100 50.1 24.67 50.1 55.0 49.9 0 97 0 340 0.00
05/06/2026 03:30 100 49.9 24.67 49.9 55.0 49.9 0 52 0 340 0.00
05/06/2026 03:15 100 49.9 24.67 49.9 55.0 49.9 0 63 0 340 0.00
05/06/2026 03:00 100 50.0 24.67 50.0 55.0 50.0 0 63 0 340 0.00
05/06/2026 02:45 100 50.2 24.67 50.2 55.0 50.0 0 130 0 340 0.00
05/06/2026 02:30 100 50.4 24.67 50.4 55.0 50.0 0 181 0 340 0.00
05/06/2026 02:15 100 50.0 24.67 50.0 55.0 50.0 0 101 0 340 0.00
05/06/2026 02:00 100 50.2 24.67 50.2 55.0 50.2 0 201 0 340 0.00
05/06/2026 01:45 100 51.1 24.67 51.1 55.0 51.1 0 85 0 340 0.00
05/06/2026 01:30 100 51.6 24.67 51.6 55.0 51.6 0 14 0 340 0.00
05/06/2026 01:15 100 52.0 24.67 52.0 55.0 52.0 0 59 0 340 0.00
05/06/2026 01:00 100 52.8 24.67 52.8 55.0 52.8 0 1 0 340 0.00
05/06/2026 00:45 100 53.3 24.67 53.3 55.0 53.3 0 6 0 340 0.00
05/06/2026 00:30 100 54.1 24.67 54.1 55.0 54.1 0 38 0 340 0.00
05/06/2026 00:15 100 54.6 24.67 54.6 55.0 54.6 0 358 0 340 0.00
05/06/2026 00:00 100 55.0 24.67 55.0 55.0 55.0 0 340 0 340 0.00
05/05/2026 23:45 100 55.3 24.67 55.3 65.1 49.4 0 359 9 318 0.00
05/05/2026 23:30 100 55.5 24.67 55.5 65.1 49.4 0 25 9 318 0.00
05/05/2026 23:15 100 55.7 24.67 55.7 65.1 49.4 0 164 9 318 0.00
05/05/2026 23:00 100 55.7 24.67 55.7 65.1 49.4 0 271 9 318 0.00
05/05/2026 22:45 100 55.7 24.67 55.7 65.1 49.4 0 296 9 318 0.00
05/05/2026 22:30 100 55.7 24.67 55.7 65.1 49.4 0 2 9 318 0.00
05/05/2026 22:15 100 55.9 24.67 55.9 65.1 49.4 0 341 9 318 0.00
05/05/2026 22:00 100 55.8 24.67 55.8 65.1 49.4 0 267 9 318 0.00
05/05/2026 21:45 100 56.1 24.67 56.1 65.1 49.4 0 223 9 318 0.00
05/05/2026 21:30 100 56.1 24.67 56.1 65.1 49.4 0 261 9 318 0.00
05/05/2026 21:15 100 56.2 24.67 56.3 65.1 49.4 0 238 9 318 0.00
05/05/2026 21:00 98 56.0 24.67 56.5 65.1 49.4 0 237 9 318 0.00
05/05/2026 20:45 98 55.9 24.67 56.6 65.1 49.4 3 237 9 318 0.00
05/05/2026 20:30 97 55.9 24.67 56.8 65.1 49.4 3 209 9 318 0.00
05/05/2026 20:15 95 55.8 24.67 57.1 65.1 49.4 6 288 9 318 0.00
05/05/2026 20:00 94 55.6 24.67 57.5 65.1 49.4 6 298 9 318 0.00
05/05/2026 19:45 91 55.5 24.67 58.0 65.1 49.4 4 269 9 318 0.00
05/05/2026 19:30 90 55.4 24.67 58.4 65.1 49.4 0 284 9 318 0.00
05/05/2026 19:15 88 55.1 24.67 58.6 65.1 49.4 0 220 9 318 0.00
05/05/2026 19:00 87 54.8 24.67 58.6 65.1 49.4 3 307 9 318 0.00
05/05/2026 18:45 85 54.3 24.67 58.9 65.1 49.4 6 310 9 318 0.00
05/05/2026 18:30 82 54.1 24.67 59.6 65.1 49.4 4 279 9 318 0.00
05/05/2026 18:15 80 53.9 24.67 60.1 65.1 49.4 0 240 9 318 0.00
05/05/2026 18:00 78 53.8 24.67 60.5 65.1 49.4 4 272 9 318 0.00
05/05/2026 17:45 78 53.9 24.67 60.9 65.1 49.4 6 210 9 318 0.00
05/05/2026 17:30 76 53.8 24.67 61.3 65.1 49.4 6 226 9 318 0.00
05/05/2026 17:15 74 53.9 24.67 62.2 65.1 49.4 3 291 9 318 0.00
05/05/2026 17:00 74 54.6 24.67 63.2 65.1 49.4 5 241 9 318 0.00
05/05/2026 16:45 76 55.2 24.67 62.8 65.1 49.4 6 273 9 318 0.00
05/05/2026 16:30 75 55.2 24.67 63.2 65.1 49.4 7 207 9 318 0.00
05/05/2026 16:15 72 55.5 24.67 64.8 65.1 49.4 7 253 9 318 0.00
05/05/2026 16:00 72 55.4 24.67 64.7 65.1 49.4 7 302 9 318 0.00
05/05/2026 15:45 68 54.4 24.67 65.1 65.1 49.4 8 252 9 318 0.00
05/05/2026 15:30 67 53.2 24.67 64.4 64.8 49.4 9 298 9 318 0.00
05/05/2026 15:15 66 52.7 24.67 64.5 64.8 49.4 8 241 9 318 0.00
05/05/2026 15:00 67 52.9 24.67 63.9 64.8 49.4 8 245 9 318 0.00
05/05/2026 14:45 69 53.8 24.67 64.1 64.8 49.4 8 242 9 318 0.00
05/05/2026 14:30 73 54.5 24.67 63.4 64.8 49.4 6 301 9 318 0.00
05/05/2026 14:15 70 53.3 24.67 63.2 64.8 49.4 3 277 9 318 0.00
05/05/2026 14:00 67 52.4 24.67 63.7 64.8 49.4 0 264 9 318 0.00
05/05/2026 13:45 68 52.9 24.67 63.6 64.8 49.4 6 221 9 318 0.00
05/05/2026 13:30 70 53.0 24.67 62.8 64.8 49.4 6 270 9 318 0.00
05/05/2026 13:15 71 52.2 24.67 61.9 64.8 49.4 2 259 9 318 0.00
05/05/2026 13:00 69 52.6 24.67 63.0 64.8 49.4 6 235 9 318 0.00
05/05/2026 12:45 67 52.3 24.67 63.4 64.8 49.4 9 235 9 318 0.00
05/05/2026 12:30 64 51.6 24.67 63.8 64.8 49.4 5 243 9 318 0.00
05/05/2026 12:15 62 51.2 24.67 64.5 64.8 49.4 7 268 9 318 0.00
05/05/2026 12:00 64 51.9 24.67 64.2 64.8 49.4 9 318 9 318 0.00
05/05/2026 11:45 64 52.4 24.67 64.8 64.8 49.4 9 303 9 303 0.00
05/05/2026 11:30 65 52.5 24.67 64.5 64.6 49.4 6 284 6 284 0.00
05/05/2026 11:15 64 52.4 24.67 64.6 64.6 49.4 4 5 5 209 0.00
05/05/2026 11:00 66 52.4 24.67 63.9 64.6 49.4 5 209 5 209 0.00
05/05/2026 10:45 64 52.3 24.67 64.6 64.6 49.4 0 181 2 347 0.00
05/05/2026 10:30 67 53.0 24.67 64.2 64.2 49.4 0 359 2 347 0.00
05/05/2026 10:15 70 52.8 24.67 62.9 62.9 49.4 2 347 2 347 0.00
05/05/2026 10:00 73 53.9 24.67 62.5 62.5 49.4 0 322 0 322 0.00
05/05/2026 09:45 77 53.2 24.67 60.6 60.6 49.4 0 213 0 213 0.00
05/05/2026 09:30 80 53.1 24.67 59.1 59.1 49.4 0 354 0 354 0.00
05/05/2026 09:15 84 53.8 24.67 58.5 58.5 49.4 0 203 0 203 0.00
05/05/2026 09:00 86 53.0 24.67 57.1 57.5 49.4 0 233 0 233 0.00
05/05/2026 08:45 87 53.2 24.67 57.1 57.5 49.4 0 276 0 48 0.00
05/05/2026 08:30 91 55.0 24.67 57.5 57.5 49.4 0 48 0 48 0.00
05/05/2026 08:15 99 56.4 24.67 56.8 56.8 49.4 0 25 0 25 0.00
05/05/2026 08:00 100 55.9 24.67 55.9 55.9 49.4 0 161 0 161 0.00
05/05/2026 07:45 100 54.5 24.67 54.5 54.5 49.4 0 193 0 193 0.00
05/05/2026 07:30 100 52.0 24.67 52.0 53.3 49.4 0 99 0 65 0.00
05/05/2026 07:15 100 50.6 24.67 50.6 53.3 49.4 0 70 0 65 0.00
05/05/2026 07:00 100 50.2 24.67 50.2 53.3 49.4 0 53 0 65 0.00
05/05/2026 06:45 100 49.7 24.67 49.7 53.3 49.4 0 32 0 65 0.00
05/05/2026 06:30 100 49.8 24.67 49.8 53.3 49.4 0 75 0 65 0.00
05/05/2026 06:15 100 50.2 24.67 50.2 53.3 49.4 0 48 0 65 0.00
05/05/2026 06:00 100 49.4 24.67 49.4 53.3 49.4 0 65 0 65 0.00
05/05/2026 05:45 100 50.2 24.67 50.2 53.3 50.2 0 354 0 65 0.00
05/05/2026 05:30 100 50.9 24.67 50.9 53.3 50.9 0 66 0 65 0.00
05/05/2026 05:15 100 51.4 24.67 51.4 53.3 51.1 0 65 0 65 0.00
05/05/2026 05:00 100 52.0 24.67 52.0 53.3 51.1 0 190 0 190 0.00
05/05/2026 04:45 100 52.3 24.67 52.3 53.3 51.1 0 203 0 203 0.00
05/05/2026 04:30 100 52.1 24.67 52.1 53.3 51.1 0 150 0 150 0.00
05/05/2026 04:15 100 52.0 24.67 52.0 53.3 51.1 0 150 0 150 0.00
05/05/2026 04:00 100 51.4 24.67 51.4 53.3 51.1 0 200 0 154 0.00
05/05/2026 03:45 100 51.1 24.67 51.1 53.3 51.1 0 92 0 154 0.00
05/05/2026 03:30 100 51.5 24.67 51.5 53.3 51.1 0 154 0 154 0.00
05/05/2026 03:15 100 51.6 24.67 51.6 53.3 51.1 0 208 0 208 0.00
05/05/2026 03:00 100 52.0 24.67 52.0 53.3 51.1 0 122 0 180 0.00
05/05/2026 02:45 100 52.3 24.67 52.3 53.3 51.1 0 180 0 180 0.00
05/05/2026 02:30 100 51.8 24.67 51.8 53.3 51.1 0 186 0 186 0.00
05/05/2026 02:15 100 51.5 24.67 51.5 53.3 51.1 0 69 0 162 0.00
05/05/2026 02:00 100 51.1 24.67 51.1 53.3 51.1 0 162 0 162 0.00
05/05/2026 01:45 100 51.3 24.67 51.3 53.3 51.3 0 137 0 269 0.00
05/05/2026 01:30 100 51.8 24.67 51.8 53.3 51.8 0 269 0 269 0.00
05/05/2026 01:15 100 52.2 24.67 52.2 53.3 52.2 0 172 0 172 0.00
05/05/2026 01:00 100 52.2 24.67 52.2 53.3 52.2 0 205 0 205 0.00
05/05/2026 00:45 100 52.5 24.67 52.5 53.3 52.5 0 17 0 93 0.00
05/05/2026 00:30 100 53.0 24.67 53.0 53.3 52.9 0 93 0 93 0.00
05/05/2026 00:15 100 52.9 24.67 52.9 53.3 52.9 0 74 0 114 0.00
05/05/2026 00:00 100 53.3 24.67 53.3 53.3 53.3 0 114 0 114 0.00